CZ-6A R/B

Satellite information

Favourite Embed

Satellite Type and Status

ROCKET BODYIN ORBIT

Key statistics

Satellite CZ-6A R/B at a glance.

Uptime

675

Days in orbit

Revolutions

≈ 15.1

Per day

Orbit

SSO

Sun Synchronous Orbit

Inclination

97.8

Latest

Satellite identification and parameters

Extended collection of information and parameters for CZ-6A R/B.

Object identification

Identified? True

Debris? False

Object name: CZ-6A R/B

International designator: 2023-168B

Object number (NORAD): 58200

Object ID (CCSDS): 58200

Country: PEOPLES REPUBLIC OF CHINA (PRC)

Current information (Y/N): Y

RCS size: LARGE

Orbital parameters

Period: 95.133 minutes

Inclination: 97.7782 deg

SMA: 6903.175 km

Apoapsis: 568.667 km

Periapsis: 481.414 km

RAAN: 273.152 deg

Eccentricy: 0.00631975

Argument of periapsis: 262.7361 deg

Mean anomaly: 96.6683 deg

Mean motion: 15.13663761 rev/day

Mean motion (dot): 0.00009501 rev/day2

B* drag term: 0.0005065539 1/REarth

Two-line elements (TLE)

Creation date: Sept. 3, 2025, 10:15 a.m.

Reference frame: TEME

Reference center: EARTH

Epoch: Sept. 3, 2025, 5:25 a.m. UTC

TLE line 0: 0 CZ-6A R/B

TLE line 1: 1 58200U 23168B 25246.22619074 .00009501 00000-0 50655-3 0 9994

TLE line 2: 2 58200 97.7782 273.1520 0063198 262.7361 96.6683 15.13663761101381

Live tracking on map

Real-time ground track for satellite CZ-6A R/B.

In-orbit conjunctions

A list of the most updated potential collisions computed for object CZ-6A R/B.

Target Orbit TCA Probability of collision Miss distance Type
KSLV-II R/B SSO 2025-06-01 00:53:57 0.0001022725 101.0 (m) ROCKET BODY
DELTA 1 DEB LEO 2025-03-02 16:17:49 0.0001529809 43.0 (m) DEBRIS

Associated space launch

A pair of satellites officially described as for cartographic surveying purposes, details TBD.

CZ-6A R/B was lifted into orbit during the mission ‘Long March 6A | Tianhui 5’, on board a Long March 6A space rocket.

The launch took place on Oct. 31, 2023, 10:50 p.m. from Launch Complex 9A.

For more information about the launch, click the button.

Launch to space Long March 6A | Tianhui 5
Long March 6A | Tianhui 5

Agency: N/A

Status: Launch Successful

Launch date: Oct. 31, 2023, 10:50 p.m. UTC

Rocket: Long March 6A

Launch pad: Launch Complex 9A

Location: Taiyuan Satellite Launch Center, People's Republic of China

...

Latest news about this satellite

There are no fresh news available about this satellite. Check back as we update our databases every day.


Newsletter sign-up

Weekly statistics, charts and insights to help you stay on top of the space industry.